Location: LDNL
(36.4545°S, 141.6685°E)
Time: 09:37:48
(UTC+11:00)

Courier 1B - Pass Details

Date: 08 February 2023
Orbit: 962 x 1209 km, 28.3° (Epoch: 21 March)

Event Time Altitude Azimuth Distance (km) Brightness Sun altitude
Exits shadow 03:32:20 17° 53° (NE) 2,656 9.7 -32.7°
Drops below altitude 10° 03:33:58 10° 59° (ENE) 3,145 10.1 -32.5°
Sets 03:37:00 0° 65° (ENE) 4,112 10.8 -32.2°
